• In Hungary
  • List of Countries
  • For 7 days
  • Water Temperature
  • Satellite Maps
  • Weather Map
  • News
  • Weather Widgets
  • user-avatar
    Login

    Hourly Weather Zapolatovo

    Today, 17 July, Tuesday

    Time Temperature Precipitation Wind Pressure Humidity
    00:00 +22°C° 0.3 mm 1 mps 742 mmHg 90%
    01:00 +21°C° 0.2 mm 1 mps 741 mmHg 90%
    02:00 +21°C° 0.2 mm 1 mps 741 mmHg 91%
    03:00 +21°C° 0 mm 1 mps 741 mmHg 92%
    04:00 +20°C° 0.4 mm 2 mps 741 mmHg 93%
    05:00 +20°C° 0.4 mm 2 mps 740 mmHg 93%
    06:00 +20°C° 0.4 mm 3 mps 740 mmHg 94%
    07:00 +21°C° 0.5 mm 3 mps 740 mmHg 92%
    08:00 +21°C° 0.5 mm 4 mps 740 mmHg 90%
    09:00 +22°C° 0.5 mm 5 mps 740 mmHg 89%
    10:00 +22°C° 0.8 mm 5 mps 740 mmHg 89%
    11:00 +22°C° 0.8 mm 5 mps 739 mmHg 89%
    12:00 +22°C° 0.8 mm 5 mps 739 mmHg 89%
    13:00 +22°C° 0.5 mm 5 mps 739 mmHg 89%
    14:00 +22°C° 0.5 mm 4 mps 739 mmHg 88%
    15:00 +23°C° 0.5 mm 4 mps 738 mmHg 87%
    16:00 +23°C° 1.3 mm 4 mps 738 mmHg 87%
    17:00 +22°C° 1.3 mm 4 mps 738 mmHg 88%
    18:00 +22°C° 1.3 mm 4 mps 738 mmHg 89%
    19:00 +22°C° 1.4 mm 3 mps 737 mmHg 91%
    20:00 +21°C° 1.4 mm 2 mps 737 mmHg 93%
    21:00 +21°C° 1.4 mm 2 mps 737 mmHg 95%
    22:00 +20°C° 0.9 mm 2 mps 737 mmHg 96%
    23:00 +20°C° 0.9 mm 2 mps 736 mmHg 96%

    Tomorrow, 18 July, Wednesday

    Time Temperature Precipitation Wind Pressure Humidity
    00:00 +20°C° 0.9 mm 2 mps 736 mmHg 97%
    01:00 +20°C° 1.1 mm 3 mps 736 mmHg 97%
    02:00 +20°C° 1.1 mm 3 mps 736 mmHg 97%
    03:00 +20°C° 1.1 mm 3 mps 736 mmHg 97%
    04:00 +20°C° 0.9 mm 3 mps 736 mmHg 97%
    05:00 +20°C° 0.9 mm 3 mps 736 mmHg 97%
    06:00 +20°C° 0.9 mm 3 mps 736 mmHg 97%
    07:00 +20°C° 0.4 mm 3 mps 736 mmHg 96%
    08:00 +21°C° 0.4 mm 3 mps 736 mmHg 95%
    09:00 +21°C° 0.4 mm 3 mps 736 mmHg 93%
    10:00 +21°C° 1.6 mm 4 mps 736 mmHg 92%
    11:00 +22°C° 1.6 mm 5 mps 737 mmHg 90%
    12:00 +22°C° 1.6 mm 6 mps 737 mmHg 88%
    13:00 +22°C° 1.3 mm 6 mps 737 mmHg 87%
    14:00 +22°C° 1.3 mm 7 mps 737 mmHg 87%
    15:00 +22°C° 1.3 mm 7 mps 737 mmHg 87%
    16:00 +22°C° 0.3 mm 7 mps 737 mmHg 86%
    17:00 +22°C° 0.3 mm 6 mps 737 mmHg 84%
    18:00 +22°C° 0.3 mm 6 mps 737 mmHg 83%
    19:00 +21°C° 0.1 mm 6 mps 738 mmHg 85%
    20:00 +21°C° 0.1 mm 5 mps 738 mmHg 87%
    21:00 +20°C° 0.1 mm 5 mps 738 mmHg 88%
    22:00 +20°C° 0.1 mm 5 mps 738 mmHg 89%
    23:00 +20°C° 0.1 mm 5 mps 739 mmHg 90%

    Day after tomorrow, 19 July, Thursday

    Time Temperature Precipitation Wind Pressure Humidity
    00:00 +19°C° 0.1 mm 5 mps 739 mmHg 91%
    01:00 +19°C° 0.2 mm 5 mps 739 mmHg 91%
    02:00 +19°C° 0.2 mm 5 mps 739 mmHg 91%
    03:00 +19°C° 0.2 mm 5 mps 740 mmHg 92%
    04:00 +19°C° 0.2 mm 5 mps 740 mmHg 91%
    05:00 +19°C° 0.2 mm 5 mps 740 mmHg 91%
    06:00 +19°C° 0.2 mm 5 mps 741 mmHg 91%
    07:00 +21°C° 0.1 mm 5 mps 741 mmHg 85%
    08:00 +22°C° 0.1 mm 5 mps 741 mmHg 80%
    09:00 +23°C° 0.1 mm 6 mps 742 mmHg 75%
    10:00 +26°C° 0.1 mm 6 mps 742 mmHg 71%
    11:00 +27°C° 0.1 mm 6 mps 742 mmHg 67%
    12:00 +28°C° 0.1 mm 6 mps 742 mmHg 62%
    13:00 +28°C° 0.3 mm 6 mps 743 mmHg 62%
    14:00 +29°C° 0.3 mm 6 mps 743 mmHg 61%
    15:00 +29°C° 0.3 mm 6 mps 743 mmHg 61%
    16:00 +29°C° 0.2 mm 5 mps 743 mmHg 64%
    17:00 +29°C° 0.2 mm 4 mps 743 mmHg 67%
    18:00 +29°C° 0.2 mm 3 mps 743 mmHg 70%
    19:00 +27°C° 0.2 mm 3 mps 743 mmHg 72%
    20:00 +26°C° 0.2 mm 2 mps 743 mmHg 75%
    21:00 +25°C° 0.2 mm 2 mps 743 mmHg 77%
    22:00 +24°C° 0.2 mm 2 mps 743 mmHg 79%
    23:00 +23°C° 0.2 mm 2 mps 743 mmHg 81%

    20 July, Friday

    Time Temperature Precipitation Wind Pressure Humidity
    00:00 +23°C° 0.2 mm 2 mps 743 mmHg 82%
    01:00 +21°C° 0.9 mm 2 mps 743 mmHg 85%
    02:00 +21°C° 0.9 mm 3 mps 743 mmHg 88%
    03:00 +20°C° 0.9 mm 3 mps 743 mmHg 91%
    04:00 +21°C° 0.1 mm 3 mps 744 mmHg 90%
    05:00 +21°C° 0.1 mm 3 mps 744 mmHg 89%
    06:00 +21°C° 0.1 mm 3 mps 744 mmHg 89%
    07:00 +24°C° 0 mm 3 mps 744 mmHg 83%
    08:00 +25°C° 0 mm 3 mps 744 mmHg 78%
    09:00 +27°C° 0 mm 3 mps 744 mmHg 72%
    10:00 +28°C° 0 mm 3 mps 744 mmHg 68%
    11:00 +29°C° 0 mm 4 mps 744 mmHg 64%
    12:00 +30°C° 0 mm 4 mps 744 mmHg 60%
    13:00 +32°C° 0 mm 4 mps 744 mmHg 58%
    14:00 +32°C° 0 mm 4 mps 744 mmHg 56%
    15:00 +33°C° 0 mm 4 mps 744 mmHg 54%
    16:00 +32°C° 0 mm 4 mps 744 mmHg 57%
    17:00 +31°C° 0 mm 3 mps 744 mmHg 60%
    18:00 +30°C° 0 mm 3 mps 744 mmHg 63%
    19:00 +28°C° 0 mm 2 mps 744 mmHg 65%
    20:00 +27°C° 0 mm 2 mps 744 mmHg 67%
    21:00 +25°C° 0 mm 1 mps 744 mmHg 68%
    22:00 +24°C° 1.2 mm 3 mps 744 mmHg 74%
    23:00 +23°C° 1.2 mm 4 mps 745 mmHg 80%

    21 July, Saturday

    Time Temperature Precipitation Wind Pressure Humidity
    00:00 +22°C° 1.2 mm 5 mps 745 mmHg 86%
    01:00 +22°C° 0.3 mm 4 mps 745 mmHg 87%
    02:00 +21°C° 0.3 mm 3 mps 745 mmHg 89%
    03:00 +21°C° 0.3 mm 2 mps 744 mmHg 91%
    04:00 +21°C° 0 mm 2 mps 744 mmHg 90%
    05:00 +21°C° 0 mm 2 mps 744 mmHg 90%
    06:00 +21°C° 0 mm 3 mps 744 mmHg 90%
    07:00 +24°C° 0.1 mm 3 mps 744 mmHg 84%
    08:00 +26°C° 0.1 mm 3 mps 744 mmHg 78%
    09:00 +27°C° 0.1 mm 3 mps 744 mmHg 72%
    10:00 +28°C° 0.1 mm 3 mps 744 mmHg 67%
    11:00 +30°C° 0.1 mm 3 mps 744 mmHg 62%
    12:00 +31°C° 0.1 mm 3 mps 744 mmHg 57%
    13:00 +31°C° 0.8 mm 3 mps 744 mmHg 56%
    14:00 +33°C° 0.8 mm 3 mps 744 mmHg 55%
    15:00 +33°C° 0.8 mm 3 mps 744 mmHg 54%
    16:00 +31°C° 0.4 mm 3 mps 744 mmHg 58%
    17:00 +31°C° 0.4 mm 2 mps 744 mmHg 62%
    18:00 +30°C° 0.4 mm 2 mps 744 mmHg 67%
    19:00 +29°C° 0 mm 3 mps 744 mmHg 70%
    20:00 +27°C° 0 mm 3 mps 744 mmHg 73%
    21:00 +26°C° 0 mm 4 mps 744 mmHg 76%
    22:00 +25°C° 0 mm 4 mps 744 mmHg 78%
    23:00 +25°C° 0 mm 3 mps 744 mmHg 80%

    22 July, Sunday

    Time Temperature Precipitation Wind Pressure Humidity
    00:00 +24°C° 0 mm 3 mps 744 mmHg 82%
    01:00 +24°C° 1 mm 3 mps 744 mmHg 84%
    02:00 +22°C° 1 mm 3 mps 744 mmHg 86%
    03:00 +22°C° 1 mm 3 mps 744 mmHg 88%
    04:00 +22°C° 0.1 mm 3 mps 744 mmHg 87%
    05:00 +22°C° 0.1 mm 4 mps 744 mmHg 87%
    06:00 +22°C° 0.1 mm 4 mps 744 mmHg 86%
    07:00 +25°C° 0 mm 4 mps 744 mmHg 81%
    08:00 +26°C° 0 mm 5 mps 744 mmHg 76%
    09:00 +28°C° 0 mm 5 mps 744 mmHg 71%
    10:00 +29°C° 0.3 mm 5 mps 744 mmHg 68%
    11:00 +30°C° 0.3 mm 5 mps 744 mmHg 64%
    12:00 +32°C° 0.3 mm 5 mps 744 mmHg 61%
    13:00 +32°C° 1.4 mm 5 mps 744 mmHg 62%
    14:00 +32°C° 1.4 mm 5 mps 744 mmHg 63%
    15:00 +32°C° 1.4 mm 4 mps 744 mmHg 64%
    16:00 +32°C° 0.9 mm 4 mps 744 mmHg 67%
    17:00 +30°C° 0.9 mm 3 mps 744 mmHg 71%
    18:00 +29°C° 0.9 mm 3 mps 744 mmHg 75%
    19:00 +28°C° 0.8 mm 3 mps 744 mmHg 79%
    20:00 +27°C° 0.8 mm 3 mps 744 mmHg 83%
    21:00 +25°C° 0.8 mm 3 mps 744 mmHg 86%
    22:00 +25°C° 1.3 mm 3 mps 744 mmHg 88%
    23:00 +25°C° 1.3 mm 3 mps 744 mmHg 89%
    Show more